Regional Weather Roundup
Issued by NWS

Home | Current Version | Previous Version | Text Only | Print | Product List | Glossary On
Versions: 1 2 3 4 5 6 7 8 9 10 11 12 13 14 15 16 17 18 19 20 21 22 23 24 25 26 27 28 29 30 31 32 33 34 35 36 37 38 39 40 41 42 43 44 45 46 47 48 49 50
000
ASUS44 KFWD 190515
RWRTX
NORTH TEXAS HOURLY WEATHER ROUNDUP
NATIONAL WEATHER SERVICE FORT WORTH TX
1100 PM CST SUN FEB 18 2018

NOTE: "FAIR" INDICATES FEW OR NO CLOUDS BELOW 12,000 FEET WITH NO
SIGNIFICANT WEATHER AND/OR OBSTRUCTIONS TO VISIBILITY.

TXZ118-119-190600-
DALLAS/FORT WORTH METROPLEX

CITY           SKY/WX    TMP DP  RH WIND       PRES   REMARKS
DFW AIRPORT    FOG       62  61  96 SE6       29.87F VSB 1/2
DALLAS LOVE    MOCLDY    62  61  96 SE12      29.89S FOG
FTW MEACHAM    FAIR      62  61  96 SE10      29.87F FOG
DAL-EXECUTIVE  FAIR      61  61 100 S9        29.88F FOG
FTW-ALLIANCE   CLOUDY    62  61  96 S14       29.85F FOG
FTW-NAS-JRB    FAIR      61  58  90 SE5       29.87F FOG
FTW-SPINKS     FAIR      61  60  97 SE8       29.89F FOG
ARLINGTON      MOCLDY    59  59 100 SE7       29.88F FOG
GRAND PRAIRIE  MOCLDY    60  60 100 CALM      29.90F
ADDISON        MOCLDY    61  60  96 S9        29.91S
MESQUITE       FAIR      59  58  97 SE6       29.91S
LANCASTER      FAIR      58  57  97 SE5       29.91S FOG
$$

TXZ091>094-102>105-117-120-121-131>134-190600-
NORTH CENTRAL TEXAS

CITY           SKY/WX    TMP DP  RH WIND       PRES   REMARKS
SHRMAN/DENISON CLOUDY    60  60  99 S18       29.88F FOG
GAINESVILLE    CLOUDY    60  59  95 S15       29.87F FOG
BOWIE          FAIR      61  59  94 SE10G17   29.83F
BRIDGEPORT     FAIR      64  60  88 S13       29.86F
DECATUR        CLOUDY    61  59  94 SE9       29.85S FOG
DENTON         CLOUDY    61  61 100 S10       29.86F FOG
MCKINNEY       CLOUDY    60  60 100 S8        29.89F
BONHAM         CLOUDY    60  60  99 S10       29.90S FOG
GREENVILLE     FAIR      63  63 100 SE8       29.91S
ROCKWALL       FAIR      62  62 100 S9        29.90S
TERRELL        FAIR      65  62  90 S14       29.91F
WAXAHACHIE     FAIR      59  59 100 S7        29.91F FOG
CLEBURNE       MOCLDY    59  59 100 S16       29.89F FOG
GRANBURY       MOCLDY    60  58  94 E5        29.88F FOG
$$

TXZ083>090-098>101-113>116-127>130-139>142-154-155-190600-
WESTERN NORTH TEXAS

CITY           SKY/WX    TMP DP  RH WIND       PRES   REMARKS
WICHITA FALLS  FAIR      65  59  81 S21G31    29.76F
WF-KICKAPOO    FAIR      65  60  85 S25G32    29.79F
VERNON         FAIR      68  56  66 S16       29.75S
ABILENE        FAIR      62  59  90 S17       29.80F
ABILENE-DYESS  FAIR      64  60  88 S17       29.80F
GRAHAM           N/A     65  65 100 SE8       29.81F
BRECKENRIDGE   FAIR      66  60  79 S14       29.81F
CISCO          FAIR      66  61  82 S18G29    29.83F
EASTLAND       FAIR      62  59  91 S13       29.84F
RANGER         FAIR      62  60  91 S13G18    29.85F
MINERAL WELLS  FAIR      60  58  92 SE10      29.83F
STEPHENVILLE   FAIR      60  58  91 S9        29.90S
COMANCHE       FAIR      64  63  96 S14       29.86F
COLEMAN        FAIR      64  60  87 S12       29.85F
$$

TXZ143>147-156>162-174-175-190600-
CENTRAL TEXAS

CITY           SKY/WX    TMP DP  RH WIND       PRES   REMARKS
WACO           FAIR      67  60  78 S20       29.90S
WACO-TSTC      CLEAR     68  63  83 S17G24    29.91F
WACO-MCGREGOR  FAIR      67  61  81 S17       29.90F
HILLSBORO      FAIR      67  64  89 S15G23    29.90S
CORSICANA      FAIR      67  63  87 S15       29.93S
MEXIA          FAIR      67  61  80 S18G28    29.92F
HEARNE         CLOUDY    67  65  93 SE12G20   29.96F
CAMERON        MOCLDY    68  63  83 S15G25    29.93F
TEMPLE         FAIR      66  62  87 S23       29.90F
KILLEEN        FAIR      66  60  82 SE21G26   29.89S
KILLEEN-SKYLRK FAIR      66  62  87 S16G22    29.91R
FORT HOOD      MOCLDY    64  61  88 S16       29.87S
GATESVILLE     FAIR      66  63  88 SE12G18   29.91S
HAMILTON       FAIR      64  64 100 S15       29.88F
LAMPASAS       FAIR      66  58  75 S12       29.89S
$$

TXZ095>097-106>112-122>126-135>138-148>153-164>167-190600-
EAST TEXAS

CITY           SKY/WX    TMP DP  RH WIND       PRES   REMARKS
PARIS          CLOUDY    56  56 100 SE12      29.92F FOG
SULPHUR SPRNGS FAIR      63  63  99 S10       29.94F
MOUNT PLEASANT FAIR      62  61  96 SE10      29.96S
GILMER         CLOUDY    63  62  94 S8        29.96S
MINEOLA        MOCLDY    68  63  83 S9G20     29.93S
TYLER          MOCLDY    68  63  84 S15       29.94F
LONGVIEW       MOCLDY    67  65  93 S14       29.97S
MARSHALL       FAIR      65  62  90 S13       30.00F
ATHENS         CLOUDY    64  61  88 S17G24    29.93F
PALESTINE      FAIR      68  64  85 SE10G18   29.97S
JACKSONVILLE   CLOUDY    67  64  92 S15G25    29.99S
HENDERSON      CLOUDY    67  63  86 S13       29.99S
CENTER         CLOUDY    67  62  86 S13G21    30.03S
NACOGDOCHES    CLOUDY    67  63  87 S13       30.01S
LUFKIN         MOCLDY    67  63  87 S12       30.01F
$$

SUPPLEMENTAL OBSERVATIONS (NWS FORT WORTH AREA)

CITY           SKY/WX    TMP DP  RH WIND       PRES   REMARKS
DENISON DAM      N/A     61  59  94 S8          N/A
CADDO GRASSLND   N/A     57  55  94 S6          N/A
PAT MAYSE LAKE   N/A     55  55 100 E8          N/A
GREENVILLE       N/A     61  59  94 S6          N/A
CEDAR HILL       N/A     64  59  82 S13         N/A
LBJ GRASSLAND    N/A     61  59  94 SE10        N/A
POSSUM KINGDOM   N/A     66  61  82 SE10        N/A
GRANBURY         N/A     59  57  94 E6          N/A
COMANCHE         N/A     64  61  88 S16         N/A
MCGREGOR         N/A     66  59  77 S17G24      N/A
TEMPLE           N/A     66  61  82 S13G24      N/A
LAKE LIMESTONE   N/A     68  63  83 S13         N/A
ATHENS           N/A     68  63  83 S18G25      N/A
$$

SUPPLEMENTAL OBSERVATIONS (NWS NORMAN AREA)

CITY           SKY/WX    TMP DP  RH WIND       PRES   REMARKS
GOODLETT         N/A     69  58  68 S29       29.70F
ODELL            N/A     67  60  80 S22       29.73F
CROWELL          N/A     69  60  72 S22G28    29.75F
KNOX CITY        N/A     67  57  70 S16       29.78S
SEYMOUR          N/A     65  58  77 S15G21    29.78R
MILLERS CREEK    N/A     64  57  77 S9G22       N/A
$$

SUPPLEMENTAL OBSERVATIONS (NWS SAN ANGELO AREA)

CITY           SKY/WX    TMP DP  RH WIND       PRES   REMARKS
WEINERT          N/A     67  59  75 S21       29.78S
HASKELL          N/A     65  57  74 S10       29.79S
THROCKMORTON     N/A     62  59  88 S10       29.81F
STAMFORD         N/A     65  59  81 S16       29.80F
CLYDE            N/A     61  59  92 S14       29.83F
HAMBY            N/A     63  57  82 SE10G21     N/A
IVIE RESERVOIR   N/A     64  61  88 SE12        N/A
COLORADO BEND    N/A     66  55  68 S15G22      N/A
$$

SUPPLEMENTAL OBSERVATIONS (NWS SHREVEPORT AREA)

CITY           SKY/WX    TMP DP  RH WIND       PRES   REMARKS
CLARKSVILLE      N/A     55  54  94 E5          N/A
TEXARKANA        N/A     57  55  94 SE2         N/A
LINDEN           N/A    N/A N/A N/A S5          N/A
CADDO LAKE       N/A     61  59  94 SE2         N/A
GILMER           N/A     64  63  94 S7          N/A
HENDERSON        N/A     66  63  88 S12G20      N/A
LUFKIN           N/A     68  63  83 MISG        N/A
N SABINE NF      N/A     66  63  88 MISG        N/A
S SABINE NF      N/A     66  63  88 SW3G12      N/A
$$

SUPPLEMENTAL OBSERVATIONS ARE A COLLECTION OF AUTOMATED INSTRUMENTS
THAT ARE MAINTAINED BY A VARIETY OF FEDERAL AND STATE AGENCIES.
CERTAIN ELEMENTS...SUCH AS HUMIDITY VALUES AND SUSTAINED WIND
SPEEDS...MAY BE APPROXIMATED.




USA.gov is the U.S. government's official web portal to all federal, state and local government web resources and services.